Temp
19 19 19 19 20 20 21 22 23 24 25 25 25 25 25 26 27 26 25 33 33 32 32 33 32 30 29 27 28 28 27 28 29 28 27 27 26 26 26 25 24 25 24 21 19
18 19 19 19 19 19 20 21 22 24 25 25 25 25 25 26 27 25 34 34 32 32 32 30 31 29 27 28 27 27 26 29 31 29 28 27 26 25 24 23 22 22 21 20 19
18 18 19 19 19 19 20 21 21 23 25 24 25 25 25 25 25 30 35 35 32 32 32 32 32 30 29 27 27 27 28 30 30 30 28 27 27 26 23 23 23 22 21 21 20
17 17 18 19 19 19 20 20 21 22 24 24 25 25 25 25 30 34 34 34 33 32 32 32 31 32 31 31 29 29 31 32 30 29 29 27 26 25 25 24 24 23 22 21 21
16 17 17 18 18 19 20 21 22 22 23 24 24 24 24 25 26 34 34 34 33 32 32 32 32 32 32 31 31 33 32 32 31 30 28 28 26 26 25 24 24 23 22 21 21
14 16 17 18 18 19 21 21 22 22 23 23 24 24 23 25 32 33 33 33 33 32 32 31 32 32 32 32 33 33 32 31 30 30 29 27 26 26 25 24 23 23 22 21 20
13 15 17 17 18 19 21 22 23 22 22 23 23 22 21 26 32 31 32 32 33 33 32 33 33 32 33 33 32 32 30 30 30 29 28 28 27 25 25 25 24 23 22 22 22
12 13 15 17 18 19 21 22 23 22 22 23 22 20 22 30 31 31 31 32 33 33 33 34 34 31 33 33 30 30 29 27 30 29 29 28 26 26 25 25 24 24 24 24 23
11 12 14 16 18 19 21 23 23 21 21 22 21 20 23 29 30 33 31 31 33 33 33 34 33 31 31 30 28 28 28 30 29 30 29 29 26 27 26 25 24 25 25 24 23
11 12 13 15 17 19 22 23 21 21 20 20 20 21 25 30 32 33 33 32 32 33 33 33 27 28 26 27 29 30 31 30 29 31 30 28 26 27 26 26 25 25 25 25 24
10 11 12 15 18 19 22 23 19 20 20 23 24 24 27 31 32 32 33 31 32 31 30 30 29 28 30 29 30 32 31 31 31 32 29 27 27 28 26 26 26 26 25 25 24
10 10 12 15 17 20 20 19 20 21 18 22 24 24 28 29 29 31 33 30 30 29 30 29 28 29 31 30 31 30 31 30 31 31 30 27 27 28 28 27 27 26 26 25 25
9 10 11 15 18 17 16 20 20 20 19 24 24 25 26 28 28 28 30 29 30 29 28 27 30 31 31 31 32 30 30 30 30 30 29 29 27 27 28 28 28 27 27 26 26
9 9 10 13 16 14 16 20 20 18 21 24 26 27 27 28 29 31 31 31 30 28 28 28 30 31 32 31 30 30 31 32 30 31 28 29 26 26 27 28 28 28 27 27 27
9 9 9 10 10 11 20 20 21 21 23 28 28 30 26 29 30 30 32 31 29 29 28 28 31 31 31 31 31 31 33 32 31 28 27 29 27 25 27 27 28 28 28 28 27
9 9 9 10 10 17 17 19 20 22 22 27 29 28 28 30 32 30 31 32 30 31 30 28 31 32 32 34 32 34 34 28 25 25 28 28 28 27 27 29 29 30 29 29 28
9 9 10 9 12 17 17 17 21 20 26 27 28 27 28 28 30 30 30 29 27 27 27 29 30 31 34 33 33 31 28 27 29 27 28 27 29 30 29 31 31 30 30 30 29
9 9 13 13 16 15 16 18 21 23 24 27 29 27 29 28 29 30 29 29 28 28 24 27 29 31 33 32 32 31 29 26 30 27 29 26 30 31 29 31 32 32 31 30 29
9 10 12 16 17 13 14 17 23 22 26 27 28 28 28 30 29 30 27 30 30 26 28 25 28 31 33 33 32 32 30 29 25 25 27 27 29 31 29 29 30 31 31 30 30
8 8 10 15 16 14 14 19 21 22 27 27 27 27 26 28 29 28 26 30 30 28 29 28 29 31 33 34 32 32 29 30 25 30 30 28 28 28 31 30 29 29 28 29 29
8 6 14 13 14 12 15 15 20 22 25 26 26 27 27 29 28 27 27 31 31 28 29 27 27 29 32 31 31 30 30 25 25 24 27 27 27 26 30 28 28 28 28 27 27
5 8 14 13 12 11 12 18 21 24 24 25 26 26 27 28 28 29 28 30 31 27 27 26 25 27 29 30 32 32 30 27 26 28 24 25 28 29 28 28 27 26 25 24 26
4 4 14 14 12 12 15 20 22 22 23 24 25 26 26 26 26 27 29 31 30 30 27 27 24 27 27 29 30 32 29 25 23 23 24 27 28 28 27 27 26 25 23 22 23
4 6 7 9 10 15 17 18 19 22 22 23 24 24 24 25 25 26 27 29 30 31 28 29 23 29 30 28 29 32 31 28 27 25 25 26 30 29 26 25 24 23 21 20 20
4 6 8 7 10 9 11 17 19 20 22 21 21 23 24 24 26 24 26 28 29 30 26 27 27 25 27 30 29 32 32 29 29 28 29 29 27 27 26 25 24 22 21 21 20
5 6 7 7 8 10 13 17 18 20 20 21 21 23 21 22 24 25 26 27 27 28 27 24 28 26 27 28 29 31 31 29 30 28 30 28 28 27 24 23 23 23 22 21 20
7 8 8 8 8 10 11 12 17 16 20 21 22 22 22 21 23 24 23 24 26 27 26 26 24 24 28 28 28 29 30 31 31 30 29 28 28 25 25 25 24 22 22 21 21
Height
800 797 795 792 789 786 783 779 776 772 769 768 766 765 764 761 760 759 756 752 753 753 753 750 748 753 755 759 758 757 794 803 798 796 789 781 789 784 784 791 793 790 795 805 812
801 798 795 792 789 785 782 778 774 770 768 767 765 764 763 761 758 754 746 749 752 753 753 753 754 754 762 765 766 776 799 789 771 774 781 784 787 789 796 800 802 801 805 810 815
801 798 795 791 788 785 782 777 773 770 767 765 764 764 763 761 760 745 742 744 748 752 753 755 754 756 764 764 768 774 787 769 768 770 775 785 789 788 800 808 803 802 806 812 817
801 798 795 791 788 784 780 777 773 769 767 765 765 764 763 763 779 739 740 740 743 749 752 753 753 758 764 768 758 775 760 754 766 771 775 785 787 797 794 798 799 804 808 813 818
801 797 794 791 787 783 780 776 773 769 767 765 765 764 764 765 754 739 740 740 742 746 749 749 752 756 768 760 753 762 760 760 762 771 776 779 792 793 798 797 802 807 812 815 820
800 796 793 789 786 782 779 775 771 768 766 765 764 764 764 772 742 740 740 740 741 744 745 746 747 746 756 758 759 752 757 768 771 775 779 786 793 792 801 800 805 808 813 817 819
800 795 791 787 783 780 776 774 770 767 765 764 763 764 765 751 739 738 739 740 740 742 743 743 744 748 748 760 751 757 781 781 782 780 786 786 804 806 797 800 806 808 812 816 818
799 794 790 785 781 776 773 770 767 765 764 763 763 764 761 739 737 738 739 739 739 741 741 743 743 745 747 750 767 778 790 813 790 786 786 787 820 801 798 803 808 809 811 813 816
798 793 788 783 778 773 769 767 764 763 763 763 764 764 758 737 736 734 738 739 738 739 740 741 741 751 753 773 799 795 816 805 802 782 787 794 813 798 799 803 809 809 809 810 814
796 792 787 781 776 770 766 763 762 764 764 765 765 769 745 737 731 732 734 738 739 739 743 744 757 771 779 789 816 805 805 800 801 784 785 800 804 796 798 801 804 806 808 809 810
795 790 784 779 774 768 763 762 766 768 764 757 753 750 739 733 731 730 732 737 740 744 765 757 777 789 776 777 776 778 789 797 785 773 791 799 800 793 797 801 803 803 804 805 805
794 788 782 776 772 767 766 765 772 779 774 745 742 742 736 736 743 731 731 745 750 769 762 774 786 764 761 768 777 785 792 789 778 767 783 798 803 793 790 789 791 794 797 799 803
793 787 780 773 769 768 769 769 770 770 775 744 733 733 730 732 741 735 730 740 754 768 771 784 767 753 762 772 778 781 790 784 788 778 782 793 813 808 795 792 791 790 791 795 798
791 786 781 772 772 769 767 767 765 765 782 753 736 722 722 724 737 722 725 736 751 768 770 774 756 760 764 772 775 792 762 765 775 783 814 788 840 814 799 797 790 788 790 789 790
789 785 782 781 777 772 766 763 759 761 809 730 724 705 709 725 721 724 720 731 755 758 766 772 760 762 769 761 762 775 750 759 762 792 801 804 824 812 796 802 788 781 781 782 782
786 783 780 778 775 766 763 760 759 788 802 738 714 720 723 721 719 721 726 726 735 751 753 759 742 747 749 742 749 744 756 773 790 803 827 803 812 812 799 778 769 771 773 773 775
782 778 777 776 768 765 764 761 784 797 741 735 726 722 722 731 729 727 738 748 765 784 784 763 754 741 734 753 746 756 783 823 821 829 828 799 810 790 764 750 749 753 758 760 765
777 772 765 763 764 765 766 773 787 755 746 719 714 720 726 724 731 730 740 752 748 755 785 789 789 748 732 747 759 762 774 818 826 840 820 805 804 774 748 735 731 736 740 750 758
774 764 757 751 757 763 772 782 749 747 727 727 719 730 732 720 725 730 743 742 736 747 769 789 782 733 727 726 739 759 778 766 812 818 822 808 780 751 743 739 737 742 747 749 750
773 766 750 748 753 761 773 754 743 729 716 717 736 725 741 729 731 736 748 726 734 732 733 754 776 740 728 723 732 745 750 787 806 815 822 814 800 794 758 750 746 748 749 745 745
773 771 746 745 752 761 761 758 737 721 719 724 728 730 728 726 727 738 737 719 716 730 730 748 763 758 734 745 754 757 766 784 791 808 827 829 810 763 753 753 748 745 742 742 744
776 775 749 748 760 759 759 742 727 721 717 723 720 723 725 723 725 726 733 718 703 718 744 742 763 778 762 733 728 736 751 763 799 803 815 815 800 748 748 747 745 746 744 742 742
781 774 749 749 760 759 744 733 727 726 725 726 727 719 719 727 738 727 718 701 699 711 731 736 768 785 775 753 737 740 747 762 775 789 809 812 800 750 749 751 746 745 746 748 748
782 779 759 753 751 745 743 738 735 719 726 725 725 723 728 730 728 730 725 705 699 697 702 711 758 752 766 762 748 749 744 752 761 796 797 794 771 759 761 757 754 751 752 756 756
781 779 771 773 758 761 755 733 731 729 718 721 730 726 731 738 731 733 721 715 699 692 707 717 746 749 742 734 738 735 737 749 756 758 771 764 769 755 751 749 747 750 755 757 762
783 779 773 771 764 757 744 731 726 722 720 722 727 719 728 733 727 727 720 718 719 705 715 720 735 738 745 732 733 738 733 739 739 750 745 754 758 734 744 748 752 751 754 759 761
777 774 773 768 764 759 753 747 730 726 711 709 714 720 724 722 715 710 711 713 711 716 722 725 736 751 749 733 742 755 732 732 731 728 736 760 738 734 746 745 745 748 750 755 759
Wind_Speed
21 21 22 22 23 24 23 25 20 17 15 12 10 10 11 12 13 9 6 4 6 7 1 4 7 6 4 3 3 2 4 2 4 5 4 10 5 5 6 10 6 3 11 17 24
21 21 22 22 23 24 24 26 24 17 14 11 9 9 10 11 12 11 20 9 7 6 5 6 3 2 2 3 1 4 3 7 7 6 9 9 3 6 5 10 8 16 20 24 24
21 22 22 23 24 25 25 25 26 18 11 9 8 8 7 7 4 10 12 10 18 9 7 4 4 3 2 5 6 6 6 6 7 7 14 9 8 4 12 4 6 22 20 20 22
22 23 23 23 25 25 25 24 26 17 10 6 6 7 4 2 5 2 7 7 12 15 5 3 4 1 2 3 6 5 6 11 9 11 12 6 8 8 2 4 14 14 17 19 16
24 24 24 24 25 26 25 24 24 16 9 7 6 4 1 1 10 7 6 1 10 11 5 2 1 1 1 6 3 2 5 6 15 11 10 14 9 5 7 13 13 14 17 16 16
25 24 25 26 27 26 24 23 22 13 10 9 5 3 2 4 8 13 13 4 7 9 4 5 2 4 2 3 3 3 6 12 11 13 13 12 13 4 7 14 15 15 13 12 14
27 26 25 26 28 28 24 22 22 11 9 7 2 4 1 13 5 8 10 6 7 7 4 5 2 4 1 4 7 15 15 9 6 7 7 18 2 6 15 15 15 14 12 12 14
29 29 28 28 29 29 26 21 19 7 5 2 4 2 7 4 12 15 6 9 9 10 8 7 7 4 0 3 6 8 6 6 6 7 8 4 3 8 15 15 15 14 12 12 13
31 31 30 29 30 30 28 22 12 3 1 3 3 1 9 8 7 18 13 6 5 6 6 9 1 2 5 4 5 6 7 3 6 14 6 2 4 12 16 14 13 13 13 13 11
32 33 33 32 31 31 28 20 2 1 2 1 1 3 7 3 5 14 16 15 1 1 3 2 5 4 4 5 3 5 3 1 10 16 6 6 5 17 18 17 16 14 13 13 13
32 34 35 33 31 30 26 2 4 3 1 7 5 4 5 5 4 9 17 5 3 6 3 4 3 8 8 7 5 1 4 7 13 7 6 7 7 19 20 14 15 15 15 15 17
31 34 36 34 32 22 7 4 9 1 8 12 17 10 17 5 4 5 14 6 5 5 3 4 8 6 3 3 2 4 4 11 6 9 7 6 4 17 20 22 19 19 17 17 14
30 33 36 34 25 3 13 2 13 13 4 8 7 7 6 11 8 7 11 6 4 6 6 8 6 6 5 2 3 2 5 11 8 6 5 9 3 8 10 6 9 16 16 15 17
29 31 34 36 2 20 6 12 24 2 3 7 6 9 7 9 4 11 13 6 3 12 6 6 7 5 2 5 7 5 7 12 14 15 7 3 4 7 11 15 14 14 15 17 18
27 29 30 28 18 9 7 24 20 5 3 4 5 7 10 11 5 7 10 4 9 6 8 9 6 5 6 12 7 10 4 4 10 7 7 3 3 7 11 15 20 18 19 18 18
26 27 30 16 18 18 15 31 1 5 8 6 6 9 8 7 3 6 5 5 5 4 3 8 2 5 7 0 7 5 1 7 6 5 1 9 7 4 12 27 25 17 18 21 19
27 28 27 21 6 8 25 7 3 5 3 5 6 7 8 7 5 8 14 10 7 6 7 6 8 5 3 6 2 5 5 3 3 4 5 4 3 12 19 22 25 26 23 22 19
29 33 26 26 23 15 8 4 6 9 10 5 1 3 14 7 5 5 14 14 3 5 4 6 6 7 3 9 8 5 7 6 5 4 5 5 5 7 9 19 23 22 24 18 18
31 24 20 22 11 12 3 4 11 7 6 4 6 6 3 4 6 6 10 18 16 9 8 7 6 4 5 6 10 4 2 4 8 2 3 4 7 7 7 2 10 14 13 17 18
22 12 14 14 13 13 3 8 6 5 2 2 8 1 8 9 8 8 10 12 6 11 3 5 1 4 4 3 3 6 7 3 3 2 4 5 4 6 3 4 7 9 11 14 13
7 4 2 9 21 3 6 7 6 6 4 4 2 2 2 1 6 5 10 3 19 10 14 6 3 6 1 5 8 1 2 7 6 5 6 1 6 6 2 5 10 9 10 9 10
4 3 9 23 2 2 4 6 3 8 4 4 2 2 1 3 1 3 9 14 13 9 11 8 6 4 10 5 1 2 5 7 5 4 1 4 5 3 5 3 7 7 4 4 8
3 4 4 6 3 2 4 4 4 2 3 4 4 1 4 3 3 3 3 4 9 15 13 8 2 1 9 5 4 3 4 5 6 4 7 6 5 4 7 5 2 9 6 6 7
2 4 4 3 2 2 4 7 6 5 7 2 1 4 5 2 4 4 4 3 3 16 14 15 5 11 13 7 5 4 5 5 7 4 5 6 5 4 7 11 6 5 7 7 8
1 3 2 3 3 5 4 3 12 10 8 8 6 13 5 3 2 6 3 4 8 6 8 8 10 7 9 11 6 5 6 8 7 8 7 9 11 11 17 16 12 7 8 12 11
1 1 4 4 5 5 3 5 10 13 9 8 10 2 10 12 11 6 4 1 6 5 2 2 5 8 9 9 11 7 10 9 5 5 1 4 6 3 7 6 8 11 13 13 14
3 3 1 4 5 4 2 6 5 8 3 8 7 6 6 9 9 10 9 7 9 5 1 3 7 6 9 6 7 6 11 7 5 4 8 7 11 11 7 15 17 13 13 16 16
Wind_Direction
9 8 9 7 4 1 360 357 347 333 326 324 314 312 319 315 307 296 245 205 139 149 181 288 295 340 39 59 6 335 71 176 146 198 165 143 139 32 76 126 44 34 118 124 136
7 4 3 3 2 360 359 357 349 334 323 317 309 313 323 321 312 266 255 234 189 153 202 204 303 26 23 121 176 92 120 216 188 152 138 129 124 112 111 112 98 105 112 132 140
2 1 359 358 357 357 357 356 350 339 324 314 305 315 322 331 327 252 277 246 220 198 222 220 231 173 229 137 178 183 195 177 153 135 125 133 99 97 121 107 151 142 144 147 148
359 358 356 353 353 354 353 353 351 342 331 317 308 315 312 352 211 275 312 245 210 198 223 202 188 271 270 217 197 159 227 154 136 150 134 112 105 131 130 155 148 148 148 151 154
357 353 352 351 349 348 348 348 348 338 332 318 311 302 263 308 250 273 326 303 164 189 214 210 304 107 352 313 7 142 179 130 134 135 112 129 133 119 96 127 143 147 155 162 165
355 351 348 346 345 344 343 343 341 330 324 315 304 209 147 243 277 266 265 222 189 189 209 172 213 253 240 338 10 45 103 120 122 131 134 121 129 96 149 141 149 160 167 169 172
352 349 345 342 340 341 338 338 335 319 323 315 260 170 227 233 270 294 224 232 234 209 197 220 232 18 352 360 352 108 107 61 119 144 113 123 113 148 158 160 162 172 177 177 185
350 347 344 339 338 336 332 334 329 299 323 320 165 158 245 263 272 247 259 263 251 225 244 272 305 224 225 111 30 90 22 118 236 168 160 83 223 162 168 167 175 180 187 187 190
348 346 342 338 335 334 327 331 323 260 311 135 131 138 264 302 253 234 241 228 206 221 253 286 71 79 24 73 65 358 164 162 189 208 156 208 170 174 175 176 182 189 191 197 193
346 345 341 337 334 330 326 330 276 134 138 144 279 347 272 232 207 226 230 221 263 39 7 78 50 55 37 71 221 147 128 266 197 200 171 171 206 162 181 184 189 193 193 198 198
344 343 341 334 334 328 330 0 24 19 203 213 203 247 281 304 232 204 212 136 272 53 137 15 70 216 213 184 182 296 181 185 211 224 154 184 167 174 183 192 189 197 194 200 201
341 342 339 333 332 330 11 78 87 307 298 228 245 255 265 333 318 228 176 158 130 193 111 21 236 194 187 139 206 242 294 281 278 184 128 149 219 181 186 195 193 195 199 201 203
338 341 340 333 332 40 330 170 334 347 231 283 197 205 204 154 210 253 152 139 133 159 178 185 207 123 168 219 268 265 213 269 203 134 56 115 13 197 217 226 203 205 204 202 201
336 339 341 338 53 333 299 333 330 302 15 269 218 252 153 140 232 207 175 137 187 187 145 240 247 251 178 253 146 282 211 241 152 153 181 144 233 215 206 218 220 206 201 204 204
332 335 336 341 310 307 320 330 333 147 313 236 208 158 154 157 158 214 161 98 170 167 128 236 192 174 189 228 147 232 317 189 160 122 100 234 99 277 166 218 223 210 204 205 205
329 328 329 331 304 284 311 330 117 63 245 294 181 170 134 172 202 127 135 98 152 153 218 239 233 186 215 170 166 242 272 58 49 92 133 210 162 247 184 216 223 214 207 207 202
325 320 315 299 252 301 320 344 82 173 300 252 197 160 154 158 179 152 173 175 158 139 242 349 267 248 209 321 87 95 62 8 19 11 218 172 112 241 215 214 211 204 207 207 201
321 317 305 281 278 281 326 68 199 196 225 310 247 113 182 145 188 157 163 191 229 124 114 164 304 174 196 175 209 180 157 150 175 193 258 182 233 259 216 222 214 204 204 199 198
323 318 294 280 251 210 97 186 206 200 190 224 351 143 244 188 138 136 177 195 199 179 157 158 262 271 189 177 137 203 137 174 104 32 50 282 293 319 341 98 185 196 193 200 202
327 309 274 265 188 159 104 240 208 229 340 22 183 94 183 190 161 156 173 197 198 185 157 193 237 209 256 145 103 163 161 82 8 140 274 293 298 240 333 127 150 164 196 209 207
323 334 306 171 153 87 208 224 236 252 359 12 129 87 113 108 156 189 196 219 189 193 182 150 115 291 7 168 196 79 124 52 113 115 165 220 268 218 225 223 167 179 207 202 193
357 303 49 150 123 193 177 196 252 239 71 252 319 212 140 351 98 179 198 217 197 152 168 197 156 216 230 260 6 154 197 144 130 221 130 159 272 325 118 182 151 122 126 121 157
324 265 329 212 199 265 263 213 282 233 213 167 239 245 26 94 29 233 221 276 203 179 168 172 209 353 328 343 9 190 174 110 101 84 185 139 259 31 92 111 12 125 90 74 103
30 317 310 16 329 230 209 225 212 244 241 291 257 7 38 346 217 281 336 295 339 202 196 150 147 196 225 205 169 185 180 178 141 127 174 208 180 177 166 158 175 145 102 88 89
106 264 264 343 329 330 290 242 208 225 203 160 219 217 165 249 241 233 205 310 304 219 154 153 184 177 218 199 189 216 222 177 181 183 164 221 183 203 186 180 173 145 128 114 109
173 315 341 275 286 292 208 236 215 229 189 221 217 186 193 200 200 192 150 123 258 349 101 291 221 165 212 215 189 209 227 189 186 132 323 108 234 194 122 123 153 166 146 126 125
285 314 301 286 317 327 12 318 342 314 266 196 168 178 222 224 227 234 228 220 242 278 264 223 152 127 231 190 128 260 211 179 185 181 151 167 216 155 153 176 174 162 146 139 135